Tracking 19164 objects as of 20-May-2018
HD Live streaming from Space Station
objects crossing your sky now

RADUGA 31

Track RADUGA 31 now!
RADUGA 31 is classified as:


NORAD ID: 23010
Int'l Code: 1994-012A
Perigee: 35,761.5 km
Apogee: 35,787.6 km
Inclination: 14.9 °
Period: 1,435.1 minutes
Semi major axis: 42145 km
RCS: 3.1622 m2 (large)
Launch date: February 18, 1994
Source: Commonwealth of Independent States (former USSR) (CIS)
Launch site: TYURATAM MISSILE AND SPACE COMPLEX (TTMTR)
aabbcc
Your satellite tracking list
Your tracking list is empty




NASA's NSSDC Master Catalog

Two Line Element Set (TLE):
1 23010U 94012A   18139.67446872 -.00000163 +00000-0 +00000-0 0  9999
2 23010 014.8631 013.0452 0003095 339.7877 205.0626 01.00340234088764
Source of the keplerian elements: AFSPC